Year,Month,Day,Hour,Minute,Value (Times are PST for barometer in hPa)
2010,04,03,00,00,994.84
2010,04,03,00,01,994.88
2010,04,03,00,02,994.91
2010,04,03,00,03,994.90
2010,04,03,00,04,994.94
2010,04,03,00,05,995.06
2010,04,03,00,06,995.11
2010,04,03,00,07,995.12
2010,04,03,00,08,995.15
2010,04,03,00,09,995.16
2010,04,03,00,10,995.13
2010,04,03,00,11,995.10
2010,04,03,00,12,995.09
2010,04,03,00,13,995.09
2010,04,03,00,14,995.16
2010,04,03,00,15,995.19
2010,04,03,00,16,995.19
2010,04,03,00,17,995.24
2010,04,03,00,18,995.34
2010,04,03,00,19,995.34
2010,04,03,00,20,995.43
2010,04,03,00,21,995.59
2010,04,03,00,22,995.61
2010,04,03,00,23,995.60
2010,04,03,00,24,995.75
2010,04,03,00,25,995.78
2010,04,03,00,26,995.74
2010,04,03,00,27,995.71
2010,04,03,00,28,995.75
2010,04,03,00,29,995.82
2010,04,03,00,30,995.91
2010,04,03,00,31,995.96
2010,04,03,00,32,996.00
2010,04,03,00,33,996.01
2010,04,03,00,34,996.01
2010,04,03,00,35,996.01
2010,04,03,00,36,995.98
2010,04,03,00,37,996.08
2010,04,03,00,38,996.11
2010,04,03,00,39,996.11
2010,04,03,00,40,996.16
2010,04,03,00,41,996.15
2010,04,03,00,42,996.12
2010,04,03,00,43,996.16
2010,04,03,00,44,996.15
2010,04,03,00,45,996.16
2010,04,03,00,46,996.20
2010,04,03,00,47,996.26
2010,04,03,00,48,996.28
2010,04,03,00,49,996.28
2010,04,03,00,50,996.25
2010,04,03,00,51,996.24
2010,04,03,00,52,996.31
2010,04,03,00,53,996.37
2010,04,03,00,54,996.43
2010,04,03,00,55,996.45
2010,04,03,00,56,996.47
2010,04,03,00,57,996.58
2010,04,03,00,58,996.66
2010,04,03,00,59,996.71
2010,04,03,01,00,996.72
2010,04,03,01,01,996.69
2010,04,03,01,02,996.76
2010,04,03,01,03,996.78
2010,04,03,01,04,996.78
2010,04,03,01,05,996.78
2010,04,03,01,06,996.83
2010,04,03,01,07,996.75
2010,04,03,01,08,996.67
2010,04,03,01,09,996.72
2010,04,03,01,10,996.85
2010,04,03,01,11,996.84
2010,04,03,01,12,996.92
2010,04,03,01,13,996.98
2010,04,03,01,14,997.03
2010,04,03,01,15,996.93
2010,04,03,01,16,997.04
2010,04,03,01,17,997.19
2010,04,03,01,18,997.27
2010,04,03,01,19,997.36
2010,04,03,01,20,997.29
2010,04,03,01,21,997.39
2010,04,03,01,22,997.45
2010,04,03,01,23,997.53
2010,04,03,01,24,997.61
2010,04,03,01,25,997.61
2010,04,03,01,26,997.65
2010,04,03,01,27,997.66
2010,04,03,01,28,997.64
2010,04,03,01,29,997.63
2010,04,03,01,30,997.68
2010,04,03,01,31,997.70
2010,04,03,01,32,997.78
2010,04,03,01,33,997.78
2010,04,03,01,34,997.84
2010,04,03,01,35,997.92
2010,04,03,01,36,997.89
2010,04,03,01,37,997.89
2010,04,03,01,38,997.93
2010,04,03,01,39,998.02
2010,04,03,01,40,998.11
2010,04,03,01,41,998.11
2010,04,03,01,42,998.05
2010,04,03,01,43,998.06
2010,04,03,01,44,998.05
2010,04,03,01,45,998.01
2010,04,03,01,46,998.08
2010,04,03,01,47,998.18
2010,04,03,01,48,998.23
2010,04,03,01,49,998.26
2010,04,03,01,50,998.14
2010,04,03,01,51,998.15
2010,04,03,01,52,998.17
2010,04,03,01,53,998.20
2010,04,03,01,54,998.34
2010,04,03,01,55,998.48
2010,04,03,01,56,998.51
2010,04,03,01,57,998.51
2010,04,03,01,58,998.51
2010,04,03,01,59,998.59
2010,04,03,02,00,998.64
2010,04,03,02,01,998.75
2010,04,03,02,02,998.78
2010,04,03,02,03,998.81
2010,04,03,02,04,998.86
2010,04,03,02,05,998.84
2010,04,03,02,06,998.84
2010,04,03,02,07,998.85
2010,04,03,02,08,998.83
2010,04,03,02,09,998.86
2010,04,03,02,10,998.88
2010,04,03,02,11,998.88
2010,04,03,02,12,998.86
2010,04,03,02,13,998.85
2010,04,03,02,14,998.85
2010,04,03,02,15,998.90
2010,04,03,02,16,998.89
2010,04,03,02,17,998.93
2010,04,03,02,18,998.93
2010,04,03,02,19,998.92
2010,04,03,02,20,998.94
2010,04,03,02,21,998.98
2010,04,03,02,22,999.03
2010,04,03,02,23,999.08
2010,04,03,02,24,999.04
2010,04,03,02,25,999.02
2010,04,03,02,26,999.14
2010,04,03,02,27,999.19
2010,04,03,02,28,999.19
2010,04,03,02,29,999.19
2010,04,03,02,30,999.21
2010,04,03,02,31,999.22
2010,04,03,02,32,999.22
2010,04,03,02,33,999.25
2010,04,03,02,34,999.30
2010,04,03,02,35,999.35
2010,04,03,02,36,999.33
2010,04,03,02,37,999.35
2010,04,03,02,38,999.33
2010,04,03,02,39,999.35
2010,04,03,02,40,999.36
2010,04,03,02,41,999.38
2010,04,03,02,42,999.44
2010,04,03,02,43,999.41
2010,04,03,02,44,999.39
2010,04,03,02,45,999.44
2010,04,03,02,46,999.41
2010,04,03,02,47,999.37
2010,04,03,02,48,999.36
2010,04,03,02,49,999.38
2010,04,03,02,50,999.37
2010,04,03,02,51,999.41
2010,04,03,02,52,999.47
2010,04,03,02,53,999.52
2010,04,03,02,54,999.53
2010,04,03,02,55,999.57
2010,04,03,02,56,999.59
2010,04,03,02,57,999.59
2010,04,03,02,58,999.59
2010,04,03,02,59,999.59
2010,04,03,03,00,999.64
2010,04,03,03,01,999.71
2010,04,03,03,02,999.75
2010,04,03,03,03,999.69
2010,04,03,03,06,999.73
2010,04,03,03,07,999.76
2010,04,03,03,08,999.79
2010,04,03,03,09,999.83
2010,04,03,03,10,999.83
2010,04,03,03,11,999.80
2010,04,03,03,12,999.77
2010,04,03,03,13,999.73
2010,04,03,03,14,999.79
2010,04,03,03,15,999.83
2010,04,03,03,16,999.86
2010,04,03,03,17,999.84
2010,04,03,03,18,999.95
2010,04,03,03,19,999.85
2010,04,03,03,20,999.89
2010,04,03,03,21,999.90
2010,04,03,03,22,999.88
2010,04,03,03,23,999.84
2010,04,03,03,24,999.91
2010,04,03,03,25,1000.05
2010,04,03,03,26,1000.07
2010,04,03,03,27,1000.07
2010,04,03,03,28,1000.04
2010,04,03,03,29,1000.03
2010,04,03,03,30,1000.00
2010,04,03,03,31,999.88
2010,04,03,03,32,1000.01
2010,04,03,03,33,1000.06
2010,04,03,03,34,1000.10
2010,04,03,03,35,1000.10
2010,04,03,03,36,1000.22
2010,04,03,03,37,1000.21
2010,04,03,03,38,1000.11
2010,04,03,03,39,1000.10
2010,04,03,03,40,1000.04
2010,04,03,03,41,1000.06
2010,04,03,03,42,1000.07
2010,04,03,03,43,1000.18
2010,04,03,03,44,1000.29
2010,04,03,03,45,1000.25
2010,04,03,03,46,1000.24
2010,04,03,03,47,1000.27
2010,04,03,03,48,1000.33
2010,04,03,03,49,1000.37
2010,04,03,03,50,1000.43
2010,04,03,03,51,1000.42
2010,04,03,03,52,1000.44
2010,04,03,03,53,1000.47
2010,04,03,03,54,1000.53
2010,04,03,03,55,1000.62
2010,04,03,03,56,1000.64
2010,04,03,03,57,1000.70
2010,04,03,03,58,1000.79
2010,04,03,03,59,1000.84
2010,04,03,04,00,1000.91
2010,04,03,04,01,1000.95
2010,04,03,04,02,1000.98
2010,04,03,04,03,1000.98
2010,04,03,04,04,1001.02
2010,04,03,04,05,1001.10
2010,04,03,04,06,1001.15
2010,04,03,04,07,1001.15
2010,04,03,04,08,1001.21
2010,04,03,04,09,1001.19
2010,04,03,04,10,1001.30
2010,04,03,04,11,1001.44
2010,04,03,04,12,1001.57
2010,04,03,04,13,1001.65
2010,04,03,04,14,1001.74
2010,04,03,04,15,1001.76
2010,04,03,04,16,1001.84
2010,04,03,04,17,1001.92
2010,04,03,04,18,1001.90
2010,04,03,04,19,1001.93
2010,04,03,04,20,1001.93
2010,04,03,04,21,1001.93
2010,04,03,04,22,1001.96
2010,04,03,04,23,1002.00
2010,04,03,04,24,1002.03
2010,04,03,04,25,1001.98
2010,04,03,04,26,1002.02
2010,04,03,04,27,1002.06
2010,04,03,04,28,1002.07
2010,04,03,04,29,1002.12
2010,04,03,04,30,1002.10
2010,04,03,04,31,1002.02
2010,04,03,04,32,1001.94
2010,04,03,04,33,1002.05
2010,04,03,04,34,1002.12
2010,04,03,04,35,1002.13
2010,04,03,04,36,1002.22
2010,04,03,04,37,1002.27
2010,04,03,04,38,1002.21
2010,04,03,04,39,1002.26
2010,04,03,04,40,1002.39
2010,04,03,04,41,1002.38
2010,04,03,04,42,1002.40
2010,04,03,04,43,1002.29
2010,04,03,04,44,1002.30
2010,04,03,04,45,1002.20
2010,04,03,04,46,1002.11
2010,04,03,04,47,1002.16
2010,04,03,04,48,1002.23
2010,04,03,04,49,1002.27
2010,04,03,04,50,1002.41
2010,04,03,04,51,1002.32
2010,04,03,04,52,1002.13
2010,04,03,04,53,1002.08
2010,04,03,04,54,1002.36
2010,04,03,04,55,1002.38
2010,04,03,04,56,1002.43
2010,04,03,04,57,1002.47
2010,04,03,04,58,1002.39
2010,04,03,04,59,1002.37
2010,04,03,05,00,1002.40
2010,04,03,05,01,1002.46
2010,04,03,05,02,1002.47
2010,04,03,05,03,1002.53
2010,04,03,05,04,1002.57
2010,04,03,05,05,1002.60
2010,04,03,05,06,1002.67
2010,04,03,05,07,1002.71
2010,04,03,05,08,1002.77
2010,04,03,05,09,1002.78
2010,04,03,05,10,1002.78
2010,04,03,05,11,1002.81
2010,04,03,05,12,1002.81
2010,04,03,05,13,1002.90
2010,04,03,05,14,1002.94
2010,04,03,05,15,1002.89
2010,04,03,05,16,1002.94
2010,04,03,05,17,1002.98
2010,04,03,05,18,1003.10
2010,04,03,05,19,1003.17
2010,04,03,05,20,1003.13
2010,04,03,05,21,1003.09
2010,04,03,05,22,1003.12
2010,04,03,05,23,1003.09
2010,04,03,05,24,1003.16
2010,04,03,05,25,1003.24
2010,04,03,05,26,1003.25
2010,04,03,05,27,1003.25
2010,04,03,05,28,1003.25
2010,04,03,05,29,1003.25
2010,04,03,05,30,1003.22
2010,04,03,05,31,1003.28
2010,04,03,05,32,1003.29
2010,04,03,05,33,1003.32
2010,04,03,05,34,1003.35
2010,04,03,05,35,1003.41
2010,04,03,05,36,1003.56
2010,04,03,05,37,1003.56
2010,04,03,05,38,1003.59
2010,04,03,05,39,1003.67
2010,04,03,05,40,1003.69
2010,04,03,05,41,1003.66
2010,04,03,05,42,1003.66
2010,04,03,05,43,1003.66
2010,04,03,05,44,1003.72
2010,04,03,05,45,1003.70
2010,04,03,05,46,1003.69
2010,04,03,05,47,1003.72
2010,04,03,05,48,1003.73
2010,04,03,05,49,1003.76
2010,04,03,05,50,1003.76
2010,04,03,05,51,1003.79
2010,04,03,05,52,1003.82
2010,04,03,05,53,1003.89
2010,04,03,05,54,1003.87
2010,04,03,05,55,1003.83
2010,04,03,05,56,1003.86
2010,04,03,05,57,1003.86
2010,04,03,05,58,1003.89
2010,04,03,05,59,1003.90
2010,04,03,06,00,1003.95
2010,04,03,06,01,1003.99
2010,04,03,06,02,1004.03
2010,04,03,06,03,1004.00
2010,04,03,06,04,1004.03
2010,04,03,06,05,1004.11
2010,04,03,06,06,1004.13
2010,04,03,06,07,1004.16
2010,04,03,06,08,1004.11
2010,04,03,06,09,1004.10
2010,04,03,06,10,1004.07
2010,04,03,06,11,1004.09
2010,04,03,06,12,1004.16
2010,04,03,06,13,1004.17
2010,04,03,06,14,1004.20
2010,04,03,06,15,1004.23
2010,04,03,06,16,1004.23
2010,04,03,06,17,1004.26
2010,04,03,06,18,1004.27
2010,04,03,06,19,1004.33
2010,04,03,06,20,1004.31
2010,04,03,06,21,1004.30
2010,04,03,06,22,1004.33
2010,04,03,06,23,1004.34
2010,04,03,06,24,1004.34
2010,04,03,06,25,1004.34
2010,04,03,06,26,1004.37
2010,04,03,06,27,1004.34
2010,04,03,06,28,1004.42
2010,04,03,06,29,1004.44
2010,04,03,06,30,1004.44
2010,04,03,06,31,1004.55
2010,04,03,06,32,1004.63
2010,04,03,06,33,1004.61
2010,04,03,06,34,1004.66
2010,04,03,06,35,1004.67
2010,04,03,06,36,1004.70
2010,04,03,06,37,1004.73
2010,04,03,06,38,1004.74
2010,04,03,06,39,1004.74
2010,04,03,06,40,1004.77
2010,04,03,06,41,1004.78
2010,04,03,06,42,1004.81
2010,04,03,06,43,1004.84
2010,04,03,06,44,1004.87
2010,04,03,06,45,1004.82
2010,04,03,06,46,1004.84
2010,04,03,06,47,1004.79
2010,04,03,06,48,1004.81
2010,04,03,06,49,1004.83
2010,04,03,06,50,1004.84
2010,04,03,06,51,1004.93
2010,04,03,06,52,1004.95
2010,04,03,06,53,1004.92
2010,04,03,06,54,1004.88
2010,04,03,06,55,1004.94
2010,04,03,06,56,1004.95
2010,04,03,06,57,1004.95
2010,04,03,06,58,1004.97
2010,04,03,06,59,1005.01
2010,04,03,07,00,1005.01
2010,04,03,07,01,1004.96
2010,04,03,07,02,1004.98
2010,04,03,07,03,1004.96
2010,04,03,07,04,1004.95
2010,04,03,07,05,1004.95
2010,04,03,07,06,1004.98
2010,04,03,07,07,1004.95
2010,04,03,07,08,1004.98
2010,04,03,07,09,1004.98
2010,04,03,07,10,1005.01
2010,04,03,07,11,1005.04
2010,04,03,07,12,1005.02
2010,04,03,07,13,1005.04
2010,04,03,07,14,1005.07
2010,04,03,07,15,1005.02
2010,04,03,07,16,1005.04
2010,04,03,07,17,1005.05
2010,04,03,07,18,1005.10
2010,04,03,07,19,1005.14
2010,04,03,07,20,1005.17
2010,04,03,07,21,1005.24
2010,04,03,07,22,1005.23
2010,04,03,07,23,1005.25
2010,04,03,07,24,1005.28
2010,04,03,07,25,1005.31
2010,04,03,07,26,1005.32
2010,04,03,07,27,1005.35
2010,04,03,07,28,1005.38
2010,04,03,07,29,1005.42
2010,04,03,07,30,1005.48
2010,04,03,07,31,1005.49
2010,04,03,07,32,1005.49
2010,04,03,07,33,1005.54
2010,04,03,07,34,1005.55
2010,04,03,07,35,1005.50
2010,04,03,07,36,1005.52
2010,04,03,07,37,1005.50
2010,04,03,07,38,1005.49
2010,04,03,07,39,1005.46
2010,04,03,07,40,1005.42
2010,04,03,07,41,1005.51
2010,04,03,07,42,1005.52
2010,04,03,07,43,1005.50
2010,04,03,07,44,1005.58
2010,04,03,07,45,1005.56
2010,04,03,07,46,1005.55
2010,04,03,07,47,1005.58
2010,04,03,07,48,1005.65
2010,04,03,07,49,1005.63
2010,04,03,07,50,1005.65
2010,04,03,07,51,1005.63
2010,04,03,07,52,1005.62
2010,04,03,07,53,1005.68
2010,04,03,07,54,1005.67
2010,04,03,07,55,1005.68
2010,04,03,07,56,1005.66
2010,04,03,07,57,1005.69
2010,04,03,07,58,1005.69
2010,04,03,07,59,1005.72
2010,04,03,08,00,1005.75
2010,04,03,08,01,1005.82
2010,04,03,08,02,1005.83
2010,04,03,08,03,1005.85
2010,04,03,08,04,1005.80
2010,04,03,08,05,1005.76
2010,04,03,08,06,1005.76
2010,04,03,08,07,1005.76
2010,04,03,08,08,1005.78
2010,04,03,08,09,1005.76
2010,04,03,08,10,1005.76
2010,04,03,08,11,1005.73
2010,04,03,08,12,1005.78
2010,04,03,08,13,1005.79
2010,04,03,08,14,1005.79
2010,04,03,08,15,1005.79
2010,04,03,08,16,1005.76
2010,04,03,08,17,1005.76
2010,04,03,08,18,1005.76
2010,04,03,08,19,1005.76
2010,04,03,08,20,1005.78
2010,04,03,08,21,1005.76
2010,04,03,08,22,1005.76
2010,04,03,08,23,1005.78
2010,04,03,08,24,1005.76
2010,04,03,08,25,1005.79
2010,04,03,08,26,1005.77
2010,04,03,08,27,1005.82
2010,04,03,08,28,1005.80
2010,04,03,08,29,1005.82
2010,04,03,08,30,1005.83
2010,04,03,08,31,1005.83
2010,04,03,08,32,1005.88
2010,04,03,08,33,1005.89
2010,04,03,08,34,1005.92
2010,04,03,08,35,1005.87
2010,04,03,08,36,1005.86
2010,04,03,08,37,1005.86
2010,04,03,08,38,1005.92
2010,04,03,08,39,1005.90
2010,04,03,08,40,1005.89
2010,04,03,08,41,1005.89
2010,04,03,08,42,1005.89
2010,04,03,08,43,1005.89
2010,04,03,08,44,1005.89
2010,04,03,08,45,1005.86
2010,04,03,08,46,1005.86
2010,04,03,08,47,1005.86
2010,04,03,08,48,1005.88
2010,04,03,08,49,1005.97
2010,04,03,08,50,1005.96
2010,04,03,08,51,1005.94
2010,04,03,08,52,1005.95
2010,04,03,08,53,1006.02
2010,04,03,08,54,1006.03
2010,04,03,08,55,1006.03
2010,04,03,08,56,1005.97
2010,04,03,08,57,1005.96
2010,04,03,08,58,1005.99
2010,04,03,08,59,1005.99
2010,04,03,09,00,1006.02
2010,04,03,09,01,1006.03
2010,04,03,09,02,1006.06
2010,04,03,09,03,1006.06
2010,04,03,09,04,1006.04
2010,04,03,09,05,1006.09
2010,04,03,09,06,1006.07
2010,04,03,09,07,1006.06
2010,04,03,09,08,1006.06
2010,04,03,09,09,1006.06
2010,04,03,09,10,1006.12
2010,04,03,09,11,1006.07
2010,04,03,09,12,1006.09
2010,04,03,09,13,1006.15
2010,04,03,09,14,1006.16
2010,04,03,09,15,1006.16
2010,04,03,09,16,1006.11
2010,04,03,09,17,1006.21
2010,04,03,09,18,1006.15
2010,04,03,09,19,1006.15
2010,04,03,09,20,1006.19
2010,04,03,09,21,1006.26
2010,04,03,09,22,1006.27
2010,04,03,09,23,1006.27
2010,04,03,09,24,1006.29
2010,04,03,09,25,1006.24
2010,04,03,09,26,1006.31
2010,04,03,09,27,1006.25
2010,04,03,09,28,1006.29
2010,04,03,09,29,1006.30
2010,04,03,09,30,1006.30
2010,04,03,09,31,1006.33
2010,04,03,09,32,1006.38
2010,04,03,09,33,1006.37
2010,04,03,09,34,1006.39
2010,04,03,09,35,1006.46
2010,04,03,09,36,1006.44
2010,04,03,09,37,1006.46
2010,04,03,09,38,1006.50
2010,04,03,09,39,1006.50
2010,04,03,09,40,1006.53
2010,04,03,09,41,1006.56
2010,04,03,09,42,1006.63
2010,04,03,09,43,1006.64
2010,04,03,09,44,1006.66
2010,04,03,09,45,1006.65
2010,04,03,09,46,1006.66
2010,04,03,09,47,1006.73
2010,04,03,09,48,1006.77
2010,04,03,09,49,1006.80
2010,04,03,09,50,1006.87
2010,04,03,09,51,1006.82
2010,04,03,09,52,1006.89
2010,04,03,09,53,1006.93
2010,04,03,09,54,1006.97
2010,04,03,09,55,1006.95
2010,04,03,09,56,1006.94
2010,04,03,09,57,1006.86
2010,04,03,09,58,1006.92
2010,04,03,09,59,1006.97
2010,04,03,10,00,1006.98
2010,04,03,10,01,1006.92
2010,04,03,10,02,1006.97
2010,04,03,10,03,1007.01
2010,04,03,10,04,1006.95
2010,04,03,10,05,1006.94
2010,04,03,10,06,1007.02
2010,04,03,10,07,1007.04
2010,04,03,10,08,1007.02
2010,04,03,10,09,1006.99
2010,04,03,10,10,1007.06
2010,04,03,10,11,1007.02
2010,04,03,10,12,1007.03
2010,04,03,10,13,1007.02
2010,04,03,10,14,1007.01
2010,04,03,10,15,1007.12
2010,04,03,10,16,1007.15
2010,04,03,10,17,1007.15
2010,04,03,10,18,1007.12
2010,04,03,10,19,1007.11
2010,04,03,10,20,1007.14
2010,04,03,10,21,1007.20
2010,04,03,10,22,1007.21
2010,04,03,10,23,1007.21
2010,04,03,10,24,1007.19
2010,04,03,10,25,1007.21
2010,04,03,10,26,1007.21
2010,04,03,10,27,1007.21
2010,04,03,10,28,1007.21
2010,04,03,10,29,1007.30
2010,04,03,10,30,1007.34
2010,04,03,10,31,1007.35
2010,04,03,10,32,1007.33
2010,04,03,10,33,1007.34
2010,04,03,10,34,1007.35
2010,04,03,10,35,1007.43
2010,04,03,10,36,1007.47
2010,04,03,10,37,1007.48
2010,04,03,10,38,1007.51
2010,04,03,10,39,1007.49
2010,04,03,10,40,1007.54
2010,04,03,10,41,1007.53
2010,04,03,10,42,1007.54
2010,04,03,10,43,1007.53
2010,04,03,10,44,1007.55
2010,04,03,10,45,1007.53
2010,04,03,10,46,1007.52
2010,04,03,10,47,1007.55
2010,04,03,10,48,1007.61
2010,04,03,10,49,1007.60
2010,04,03,10,50,1007.53
2010,04,03,10,51,1007.52
2010,04,03,10,52,1007.52
2010,04,03,10,53,1007.58
2010,04,03,10,54,1007.67
2010,04,03,10,55,1007.69
2010,04,03,10,56,1007.71
2010,04,03,10,57,1007.70
2010,04,03,10,58,1007.63
2010,04,03,10,59,1007.68
2010,04,03,11,00,1007.69
2010,04,03,11,01,1007.75
2010,04,03,11,02,1007.73
2010,04,03,11,03,1007.72
2010,04,03,11,04,1007.72
2010,04,03,11,05,1007.70
2010,04,03,11,06,1007.79
2010,04,03,11,07,1007.77
2010,04,03,11,08,1007.76
2010,04,03,11,09,1007.84
2010,04,03,11,10,1007.83
2010,04,03,11,11,1007.91
2010,04,03,11,12,1007.90
2010,04,03,11,13,1007.87
2010,04,03,11,14,1007.94
2010,04,03,11,15,1007.96
2010,04,03,11,16,1007.94
2010,04,03,11,17,1007.98
2010,04,03,11,18,1007.97
2010,04,03,11,19,1008.03
2010,04,03,11,20,1008.06
2010,04,03,11,21,1008.08
2010,04,03,11,22,1008.04
2010,04,03,11,23,1008.08
2010,04,03,11,24,1008.15
2010,04,03,11,25,1008.10
2010,04,03,11,26,1008.09
2010,04,03,11,27,1008.09
2010,04,03,11,28,1008.09
2010,04,03,11,29,1008.12
2010,04,03,11,30,1008.15
2010,04,03,11,31,1008.08
2010,04,03,11,32,1008.12
2010,04,03,11,33,1008.19
2010,04,03,11,34,1008.22
2010,04,03,11,35,1008.15
2010,04,03,11,36,1008.21
2010,04,03,11,37,1008.17
2010,04,03,11,38,1008.16
2010,04,03,11,39,1008.22
2010,04,03,11,40,1008.23
2010,04,03,11,41,1008.29
2010,04,03,11,42,1008.22
2010,04,03,11,43,1008.28
2010,04,03,11,44,1008.30
2010,04,03,11,45,1008.30
2010,04,03,11,46,1008.30
2010,04,03,11,47,1008.27
2010,04,03,11,48,1008.29
2010,04,03,11,49,1008.30
2010,04,03,11,50,1008.36
2010,04,03,11,51,1008.34
2010,04,03,11,52,1008.33
2010,04,03,11,53,1008.33
2010,04,03,11,54,1008.33
2010,04,03,11,55,1008.39
2010,04,03,11,56,1008.40
2010,04,03,11,57,1008.34
2010,04,03,11,58,1008.36
2010,04,03,11,59,1008.34
2010,04,03,12,00,1008.33
2010,04,03,12,01,1008.36
2010,04,03,12,02,1008.37
2010,04,03,12,03,1008.39
2010,04,03,12,04,1008.38
2010,04,03,12,05,1008.42
2010,04,03,12,06,1008.43
2010,04,03,12,07,1008.46
2010,04,03,12,08,1008.44
2010,04,03,12,09,1008.49
2010,04,03,12,10,1008.50
2010,04,03,12,11,1008.50
2010,04,03,12,12,1008.50
2010,04,03,12,13,1008.50
2010,04,03,12,14,1008.56
2010,04,03,12,15,1008.52
2010,04,03,12,16,1008.50
2010,04,03,12,17,1008.52
2010,04,03,12,18,1008.56
2010,04,03,12,19,1008.54
2010,04,03,12,20,1008.56
2010,04,03,12,21,1008.59
2010,04,03,12,22,1008.63
2010,04,03,12,23,1008.64
2010,04,03,12,24,1008.61
2010,04,03,12,25,1008.60
2010,04,03,12,26,1008.65
2010,04,03,12,27,1008.65
2010,04,03,12,28,1008.66
2010,04,03,12,29,1008.65
2010,04,03,12,30,1008.64
2010,04,03,12,31,1008.68
2010,04,03,12,32,1008.68
2010,04,03,12,33,1008.67
2010,04,03,12,34,1008.73
2010,04,03,12,35,1008.66
2010,04,03,12,36,1008.69
2010,04,03,12,37,1008.68
2010,04,03,12,38,1008.67
2010,04,03,12,39,1008.67
2010,04,03,12,40,1008.69
2010,04,03,12,41,1008.65
2010,04,03,12,42,1008.72
2010,04,03,12,43,1008.74
2010,04,03,12,44,1008.80
2010,04,03,12,45,1008.78
2010,04,03,12,46,1008.77
2010,04,03,12,47,1008.85
2010,04,03,12,48,1008.77
2010,04,03,12,49,1008.74
2010,04,03,12,50,1008.80
2010,04,03,12,51,1008.83
2010,04,03,12,52,1008.84
2010,04,03,12,53,1008.94
2010,04,03,12,54,1008.92
2010,04,03,12,55,1008.91
2010,04,03,12,56,1008.93
2010,04,03,12,57,1008.96
2010,04,03,12,58,1008.97
2010,04,03,12,59,1008.92
2010,04,03,13,00,1008.99
2010,04,03,13,01,1008.98
2010,04,03,13,02,1008.97
2010,04,03,13,03,1009.00
2010,04,03,13,04,1008.98
2010,04,03,13,05,1008.97
2010,04,03,13,06,1009.00
2010,04,03,13,07,1009.01
2010,04,03,13,08,1009.03
2010,04,03,13,09,1009.02
2010,04,03,13,10,1008.98
2010,04,03,13,11,1009.00
2010,04,03,13,12,1009.01
2010,04,03,13,13,1008.93
2010,04,03,13,14,1008.93
2010,04,03,13,15,1009.00
2010,04,03,13,16,1009.01
2010,04,03,13,17,1008.98
2010,04,03,13,18,1008.97
2010,04,03,13,19,1008.97
2010,04,03,13,20,1008.95
2010,04,03,13,21,1008.96
2010,04,03,13,22,1009.00
2010,04,03,13,23,1009.01
2010,04,03,13,24,1009.01
2010,04,03,13,25,1009.01
2010,04,03,13,26,1009.03
2010,04,03,13,27,1009.04
2010,04,03,13,28,1009.02
2010,04,03,13,29,1009.03
2010,04,03,13,30,1009.04
2010,04,03,13,31,1009.04
2010,04,03,13,32,1009.04
2010,04,03,13,33,1009.04
2010,04,03,13,34,1009.02
2010,04,03,13,35,1009.03
2010,04,03,13,36,1009.04
2010,04,03,13,37,1009.04
2010,04,03,13,38,1008.98
2010,04,03,13,39,1009.00
2010,04,03,13,40,1008.90
2010,04,03,13,41,1008.98
2010,04,03,13,42,1008.93
2010,04,03,13,43,1008.91
2010,04,03,13,44,1008.93
2010,04,03,13,45,1008.94
2010,04,03,13,46,1008.86
2010,04,03,13,47,1008.86
2010,04,03,13,48,1008.90
2010,04,03,13,49,1008.88
2010,04,03,13,50,1008.87
2010,04,03,13,51,1008.87
2010,04,03,13,52,1008.87
2010,04,03,13,53,1008.93
2010,04,03,13,54,1008.88
2010,04,03,13,55,1008.87
2010,04,03,13,56,1008.87
2010,04,03,13,57,1008.87
2010,04,03,13,58,1008.87
2010,04,03,13,59,1008.87
2010,04,03,14,00,1008.85
2010,04,03,14,01,1008.86
2010,04,03,14,02,1008.82
2010,04,03,14,03,1008.85
2010,04,03,14,04,1008.87
2010,04,03,14,05,1008.87
2010,04,03,14,06,1008.93
2010,04,03,14,07,1008.92
2010,04,03,14,08,1008.93
2010,04,03,14,09,1008.96
2010,04,03,14,10,1008.97
2010,04,03,14,11,1008.95
2010,04,03,14,12,1008.94
2010,04,03,14,13,1009.00
2010,04,03,14,14,1008.96
2010,04,03,14,15,1008.94
2010,04,03,14,16,1008.94
2010,04,03,14,17,1008.94
2010,04,03,14,18,1008.96
2010,04,03,14,19,1008.97
2010,04,03,14,20,1008.97
2010,04,03,14,21,1008.95
2010,04,03,14,22,1008.94
2010,04,03,14,23,1008.94
2010,04,03,14,24,1008.96
2010,04,03,14,25,1008.97
2010,04,03,14,26,1008.97
2010,04,03,14,27,1008.97
2010,04,03,14,28,1009.00
2010,04,03,14,29,1009.01
2010,04,03,14,30,1009.01
2010,04,03,14,31,1009.03
2010,04,03,14,32,1008.99
2010,04,03,14,33,1009.00
2010,04,03,14,34,1009.03
2010,04,03,14,35,1008.98
2010,04,03,14,36,1009.00
2010,04,03,14,37,1008.98
2010,04,03,14,38,1008.97
2010,04,03,14,39,1008.92
2010,04,03,14,40,1008.96
2010,04,03,14,41,1008.92
2010,04,03,14,42,1008.99
2010,04,03,14,43,1008.95
2010,04,03,14,44,1008.96
2010,04,03,14,45,1009.00
2010,04,03,14,46,1008.98
2010,04,03,14,47,1009.00
2010,04,03,14,48,1009.01
2010,04,03,14,49,1009.03
2010,04,03,14,50,1009.10
2010,04,03,14,51,1009.03
2010,04,03,14,52,1009.03
2010,04,03,14,53,1009.04
2010,04,03,14,54,1009.04
2010,04,03,14,55,1009.04
2010,04,03,14,56,1009.02
2010,04,03,14,57,1009.03
2010,04,03,14,58,1009.04
2010,04,03,14,59,1009.04
2010,04,03,15,00,1009.04
2010,04,03,15,01,1009.04
2010,04,03,15,02,1009.02
2010,04,03,15,03,1009.01
2010,04,03,15,04,1009.03
2010,04,03,15,05,1009.04
2010,04,03,15,06,1009.07
2010,04,03,15,07,1009.05
2010,04,03,15,08,1009.04
2010,04,03,15,09,1009.07
2010,04,03,15,10,1009.05
2010,04,03,15,11,1009.07
2010,04,03,15,12,1009.08
2010,04,03,15,13,1009.08
2010,04,03,15,14,1009.08
2010,04,03,15,15,1009.08
2010,04,03,15,16,1009.02
2010,04,03,15,17,1009.07
2010,04,03,15,18,1009.02
2010,04,03,15,19,1008.98
2010,04,03,15,20,1009.00
2010,04,03,15,21,1008.98
2010,04,03,15,22,1008.95
2010,04,03,15,23,1008.94
2010,04,03,15,24,1008.94
2010,04,03,15,25,1008.94
2010,04,03,15,26,1008.92
2010,04,03,15,27,1008.91
2010,04,03,15,28,1008.91
2010,04,03,15,29,1008.88
2010,04,03,15,30,1008.87
2010,04,03,15,31,1008.87
2010,04,03,15,32,1008.87
2010,04,03,15,33,1008.87
2010,04,03,15,34,1008.85
2010,04,03,15,35,1008.86
2010,04,03,15,36,1008.87
2010,04,03,15,37,1008.87
2010,04,03,15,38,1008.85
2010,04,03,15,39,1008.84
2010,04,03,15,40,1008.82
2010,04,03,15,41,1008.83
2010,04,03,15,42,1008.78
2010,04,03,15,43,1008.77
2010,04,03,15,44,1008.77
2010,04,03,15,45,1008.77
2010,04,03,15,46,1008.77
2010,04,03,15,47,1008.77
2010,04,03,15,48,1008.77
2010,04,03,15,49,1008.77
2010,04,03,15,50,1008.80
2010,04,03,15,51,1008.73
2010,04,03,15,52,1008.76
2010,04,03,15,53,1008.77
2010,04,03,15,54,1008.75
2010,04,03,15,55,1008.71
2010,04,03,15,56,1008.70
2010,04,03,15,57,1008.70
2010,04,03,15,58,1008.65
2010,04,03,15,59,1008.66
2010,04,03,16,00,1008.67
2010,04,03,16,01,1008.65
2010,04,03,16,02,1008.66
2010,04,03,16,03,1008.59
2010,04,03,16,04,1008.51
2010,04,03,16,05,1008.52
2010,04,03,16,06,1008.51